This is the latest recevied weather packets stored in our database for station/object KO4APQ. If no packets are shown the sender has not sent any weather packets the latest 10 day(s).
| Time | Temp. | Humidity | Pressure | Rain* | Wind** | Luminosity | Snow |
|---|---|---|---|---|---|---|---|
| 1777545505 | 16.11° C | 95% | 1010.4 hPa | 0 mm | - | 0 W/m² | - |
| 1777545202 | 16.11° C | 95% | 1010.6 hPa | 0 mm | - | 0 W/m² | - |
| 1777544900 | 16.11° C | 95% | 1010.5 hPa | 0 mm | - | 0 W/m² | - |
| 1777544595 | 16.11° C | 95% | 1010.6 hPa | 1.27 mm | - | 0 W/m² | - |
| 1777544292 | 16.11° C | 95% | 1010.4 hPa | 1.27 mm | - | 0 W/m² | - |
| 1777543989 | 16.11° C | 95% | 1010.2 hPa | 0 mm | - | 0 W/m² | - |
| 1777543686 | 16.11° C | 95% | 1010.5 hPa | 1.78 mm | - | 0 W/m² | - |
| 1777543382 | 16.11° C | 95% | 1010.3 hPa | 1.78 mm | - | 0 W/m² | - |
| 1777543076 | 16.11° C | 95% | 1010.2 hPa | 1.27 mm | - | 0 W/m² | - |
| 1777542774 | 16.11° C | 95% | 1010.2 hPa | 1.27 mm | - | 0 W/m² | - |
| 1777542470 | 16.11° C | 95% | 1010.5 hPa | 1.78 mm | - | 0 W/m² | - |
| 1777542167 | 16.11° C | 95% | 1010.3 hPa | 3.05 mm | - | 0 W/m² | - |
| 1777541864 | 16.67° C | 95% | 1010.5 hPa | 3.05 mm | - | 0 W/m² | - |
| 1777541561 | 16.67° C | 95% | 1010.8 hPa | 6.1 mm | - | 0 W/m² | - |
| 1777541258 | 16.67° C | 95% | 1011 hPa | 6.1 mm | - | 0 W/m² | - |
| 1777540953 | 16.67° C | 95% | 1011 hPa | 4.83 mm | - | 0 W/m² | - |
| 1777540652 | 16.67° C | 95% | 1011.1 hPa | 6.1 mm | - | 0 W/m² | - |
| 1777540348 | 16.67° C | 95% | 1011.1 hPa | 13.72 mm | - | 0 W/m² | - |
| 1777540045 | 16.67° C | 94% | 1011.2 hPa | 27.69 mm | - | 0 W/m² | - |
| 1777539740 | 16.67° C | 94% | 1011.3 hPa | 54.61 mm | - | 0 W/m² | - |
| 1777539437 | 16.67° C | 93% | 1011.2 hPa | 60.71 mm | - | 0 W/m² | - |
| 1777539133 | 17.22° C | 93% | 1011.2 hPa | 36.58 mm | - | 0 W/m² | - |
| 1777538830 | 17.78° C | 92% | 1010.6 hPa | 29.46 mm | - | 0 W/m² | - |
| 1777538530 | 17.78° C | 91% | 1010 hPa | 10.67 mm | - | 0 W/m² | - |
| 1777538225 | 17.78° C | 92% | 1009.2 hPa | 0 mm | - | 0 W/m² | - |
* Rain latest hour (hover to see other rain measurements)
** Current wind speed in m/s (hover to see current wind gust speed)